#timestamp,LO_Frequency,Hit,StdDev 
1543712415.1,286046999.3,N
1543712416.0,286046999.3,N
1543712435.8,286047000.6,N
1543712455.7,286046996.9,N
1543712475.5,286046996.6,N
1543712495.3,286046998.0,N
1543712515.2,286046997.8,N
1543712535.0,286046997.2,N
1543712535.9,286046997.2,N
1543712555.8,286046996.5,N
1543712575.6,286047000.6,N
1543712595.4,286047000.8,N
1543712615.3,286046997.7,N
1543712635.1,286046995.7,N
1543712655.9,286046995.3,N
1543712675.7,286046996.9,N
1543712695.5,286046998.4,N
1543712715.4,286046999.6,N
1543712735.2,286046999.6,N
1543712755.0,286046994.9,N
1543712755.9,286046994.9,N
1543712775.8,286046996.5,N
1543712795.6,286046996.9,N
1543712815.5,286046997.2,N
1543712835.3,286046998.5,N
1543712855.1,286046999.5,N
1543712875.9,286046998.2,N
1543712895.7,286047001.2,N
1543712915.6,286046997.9,N
1543712935.4,286046998.6,N
1543712955.2,286046999.9,N
1543712975.1,286046998.5,N
1543712976.0,286046998.5,N
1543712995.8,286046999.5,N
1543713015.6,286046996.7,N
1543713035.5,286046997.1,N
1543713055.3,286046999.6,N
1543713075.2,286046999.4,N
1543713095.9,286047000.1,N
1543713115.7,286046998.2,N
1543713135.6,286046998.4,N
1543713155.4,286046998.7,N
1543713175.3,286046997.1,N
1543713195.1,286046997.6,N
1543713196.0,286046997.6,N
1543713215.8,286046997.2,N
1543713235.7,286046997.7,N
1543713255.5,286046999.1,N
1543713275.3,286046996.9,N
1543713295.2,286046998.3,N
1543713315.0,286047002.0,N
1543713315.9,286047002.0,N
1543713335.8,286047002.7,N
1543713355.6,286046998.7,N
1543713375.4,286046997.2,N
1543713395.3,286046997.8,N
1543713415.1,286046996.2,N
1543713435.9,286046995.1,Y
1543713455.7,286046997.9,P
1543713475.5,286046997.1,P
1543713495.4,286047001.0,N
1543713515.2,286047000.4,N
1543713535.0,286046999.7,N
1543713535.9,286046999.7,N
1543713555.8,286046998.1,N
1543713575.6,286047000.3,N
1543713595.5,286047000.4,N
1543713615.3,286047002.8,N
1543713635.1,286047000.2,N
1543713655.9,286047000.9,N
1543713675.7,286047001.6,N
1543713695.5,286047001.3,N
1543713715.4,286047007.5,Y
1543713735.2,286047006.4,P
1543713755.1,286047002.9,N
1543713756.0,286047002.9,N
1543713775.8,286047002.0,N
1543713795.6,286047000.8,N
1543713815.5,286046999.0,N
1543713835.3,286046998.3,N
1543713855.2,286046997.5,N
1543713875.9,286046997.6,N
1543713895.7,286046995.5,N
1543713915.6,286046997.8,N
1543713935.4,286046995.4,N
1543713955.2,286046999.5,N
1543713975.1,286047001.2,N
1543713976.0,286047001.2,N
1543713995.8,286047000.0,N
1543714015.7,286047002.4,N
1543714035.5,286046999.9,N
1543714055.3,286046998.8,N
1543714075.2,286046997.0,N
1543714095.0,286046995.4,N
1543714095.9,286046995.4,N
1543714115.8,286046999.5,N
1543714135.6,286046998.7,N
1543714155.4,286047002.8,N
1543714175.3,286047001.7,N
1543714195.1,286046999.8,N
1543714215.8,286046999.0,N
1543714235.7,286047001.0,N
1543714255.5,286046998.1,N
1543714275.4,286046998.9,N
1543714295.2,286046997.0,N
1543714315.0,286046998.4,N
1543714315.9,286046998.4,N
1543714335.8,286047002.0,N
1543714355.6,286047001.2,N
1543714375.4,286046996.9,N
1543714395.3,286046997.5,N
1543714415.1,286046999.8,N
1543714435.9,286046998.5,N
1543714455.7,286046999.8,N
1543714475.5,286047001.6,N
1543714495.4,286047002.4,N
1543714515.2,286046999.7,N
1543714535.0,286047000.9,N
1543714536.0,286047000.9,N
1543714555.8,286047000.9,N
1543714575.6,286046998.9,N
1543714595.5,286047001.7,N
1543714615.3,286047003.1,N
1543714635.1,286047006.0,N
1543714655.9,286047006.6,Y
1543714675.7,286047008.5,P
1543714695.6,286047008.4,N
1543714715.4,286047008.7,N
1543714735.2,286047008.2,N
1543714755.1,286047007.1,N
1543714756.0,286047007.1,N
1543714775.8,286047008.8,Y
1543714795.6,286047002.6,P
1543714815.5,286047002.6,N
1543714835.3,286047000.1,N
1543714855.2,286047000.6,N
1543714875.9,286047000.7,N
1543714895.7,286046999.3,N
1543714915.6,286046998.9,N
1543714935.4,286047001.8,N
1543714955.2,286047002.1,N
1543714975.1,286047004.4,N
1543714976.0,286047004.4,N
1543714995.8,286047001.8,N
1543715015.7,286047000.3,N
1543715035.5,286046998.7,N
1543715055.3,286047003.1,N
1543715075.2,286047003.5,N
1543715095.0,286047003.5,N
1543715095.9,286047003.5,N
1543715115.8,286047001.5,N
1543715135.6,286047001.2,N
1543715155.4,286046998.8,N
1543715175.3,286046998.5,N
1543715195.1,286046999.5,N
1543715215.8,286046999.0,N
1543715235.7,286046997.1,N
1543715255.5,286046999.2,N
1543715275.3,286047001.6,N
1543715295.2,286047001.6,N
1543715315.0,286046999.3,N
1543715315.9,286046999.3,N
1543715335.8,286046999.2,N
1543715355.6,286047001.7,N
1543715375.4,286047001.2,N
1543715395.3,286046997.8,N
1543715415.1,286046999.8,N
1543715435.9,286047000.7,N
1543715455.7,286047000.0,N
1543715475.5,286046998.0,N
1543715495.4,286047000.6,N
1543715515.2,286046999.0,N
1543715535.0,286046995.7,N
1543715535.9,286046995.7,N
1543715555.8,286046996.3,N
1543715575.6,286046996.7,N
1543715595.5,286047000.9,N
1543715615.3,286046998.9,N
1543715635.1,286046998.0,N
1543715655.9,286046996.8,N
1543715675.7,286046997.9,N
1543715695.5,286046998.6,N
1543715715.4,286046998.3,N
1543715735.2,286046997.4,N
1543715755.1,286046994.2,Y
1543715756.0,286046994.2,P
1543715775.8,286046995.8,N
1543715795.6,286046999.1,N
1543715815.5,286046997.1,N
1543715835.3,286046998.0,N
1543715855.1,286046998.7,N
1543715875.9,286046999.3,N
1543715895.7,286046999.4,N
1543715915.6,286046998.1,N
1543715935.4,286046999.8,N
1543715955.2,286047002.6,N
1543715975.1,286046999.4,N
1543715976.0,286046999.4,N
1543715995.8,286046995.1,N
